Rbgn^[z[y[W
メイン
   新天体発見情報
     Comet C/2021 S3 (PANSTARRS)
投稿するにはまず登録を

スレッド表示 | 新しいものから 前のトピック | 次のトピック | 下へ
投稿者 スレッド
佐藤裕久
投稿日時: 2021-10-23 11:01
モデレータ
登録日: 2005-6-12
居住地: 日本
投稿: 2277
オンライン
Comet C/2021 S3 (PANSTARRS)

R. Weryk (西オンタリオ大学,物理および天文学科)の通報によると、9月24 日UT、Haleakala
の Pan-STARRS2の1.8-m Ritchey-Chretien 反射望遠鏡で得た画像から彗星を発見した。
45秒のi-バンドサーベイ画像は、1".9のシーイングで2".2(半値全幅:FWHM)の拡散したコマが
見えるが、明らかな尾はなかった。
小惑星センターのPCCP webpageに公表後、 E. Bryssinck (Kruibeke, ベルギー, 10月4.3日UT, 
"Telescope Live"の0.5-m f/3.6 反射望遠鏡, Rio Hurtado Valley, チリ:ほぼ恒星状の外観で
強い中央集光した6"のコマが見えるが、尾はない。5".2の円形範囲で測定した光度は19.6等で
あった)らCCD位置観測者によって彗星状と観測された。

彗星機能の報告は次のとおり、

OC   Date        Reporter           Coma    Tail    PA          Exposures
F51  2021-09-28  R. Weryk           0".5                          2x60s
X02  2019-10-04  E. Bryssinck       6"                           10x180s    
F52  2021-10-04  R. Weryk           0".5                          4x45s

発見位置は次のとおり、

     2021 UT             R.A. (2000) Decl.       Mag.
     Sept.24.56091    5 23 02.09   -20 37 12.2   20.1
          24.57108    5 23 02.10   -20 37 15.7   19.8
          24.59140    5 23 02.10   -20 37 22.0   19.6

MPCの準放物線軌道要素、位置推算表は次のとおり、

Orbital elements:
    C/2021 S3 (PANSTARRS)                                                       
Epoch 2024 Feb. 20.0 TT = JDT 2460360.5                                         
T 2024 Feb. 11.50328 TT                                 Rudenko                 
q   1.3049282            (2000.0)            P               Q                  
z  -0.0000071      Peri.    7.26670     -0.77115783     +0.40420642             
 +/-0.0000001      Node   215.30459     -0.61852017     -0.65870440             
e   1.0000092      Incl.   58.33083     -0.15082572     +0.63460672             
From 29 observations 2021 Sept. 24-Oct. 5, mean residual 0".6.                  
                                                                                
    C/2021 S3 (PANSTARRS)                                                       
Epoch 2021 July 5.0 TT = JDT 2459400.5                                          
T 2024 Feb. 11.52145 TT                                 Rudenko                 
q   1.3021389            (2000.0)            P               Q                  
z  +0.0004329      Peri.    7.32574     -0.77016016     +0.40507125             
 +/-0.0000001      Node   215.36077     -0.61986106     -0.65746425             
e   0.9994363      Incl.   58.36294     -0.15041806     +0.63534089             
From 29 observations 2021 Sept. 24-Oct. 5, mean residual 0".6.                  
                                                                                
Ephemeris:
Date    TT    R. A. (2000) Decl.     Delta      r    Elong.  Phase   m1
2021 09 08    05 21 52.8 -19 11 01   9.0040  9.0273    88.1     6.4  19.8
...
2021 09 23    05 23 01.0 -20 28 48   8.7097  8.9148    98.6     6.4  19.7
...
2021 10 01    05 22 53.9 -21 12 08   8.5576  8.8545   104.1     6.3  19.6
...
2021 10 07    05 22 27.5 -21 44 56   8.4472  8.8092   108.1     6.2  19.6
2021 10 08    05 22 21.3 -21 50 24   8.4291  8.8017   108.8     6.2  19.6
2021 10 09    05 22 14.6 -21 55 51   8.4112  8.7941   109.4     6.1  19.6
...
2021 10 15    05 21 23.6 -22 28 22   8.3063  8.7487   113.3     6.0  19.5
...
2021 10 23    05 19 47.1 -23 10 37   8.1743  8.6879   118.1     5.8  19.5
...
2021 11 07    05 15 22.1 -24 23 20   7.9558  8.5736   125.8     5.4  19.3

(MPEC 2021-T166、CBET 5051)

スレッド表示 | 新しいものから 前のトピック | 次のトピック | トップ

投稿するにはまず登録を
 
© 1999 Tsutomu Seki.